P/2015 TP200 ( LINEAR )

Japanese version
Home page
Updated on July 6, 2017

---------------------------------------------------------------------

* Profile

Discovery Date October 10, 2015
Magnitude 19.7 mag
Discoverer LINEAR survey (Space Surveillance Telescope, Atom Peak, White Sands Missile Range, NM, USA)

* Pictures

* Orbital Elements

Epoch 2016 Oct. 19.0 TT = JDT 2457680.5
T 2016 Oct. 28.19966 TT                                 MPCW
q   3.3853028            (2000.0)            P               Q
n   0.04998933     Peri.   82.73496     +0.00646290     -0.99980758
a   7.2982345      Node     6.97549     +0.84672560     -0.00438209
e   0.5361477      Incl.    8.77230     +0.53199059     +0.01912080
P  19.72
From 548 observations 2015 Sept. 12-2017 Mar. 2, mean residual 0".5.

* Magnitudes Graph

        m1 = 5.5 + 5 log d + 17.0 log r(t - 100)

---------------------------------------------------------------------

The orbital elements are published on M.P.E.C. 2017-E59.
The magnitudes graphs are made with Comet for Windows.

---------------------------------------------------------------------

Copyright(C) Seiichi Yoshida (comet@aerith.net). All rights reserved.